WetterOnline ( https://www.wetteronline.de )

Wetter aktuell Auschwitz

Aktuelles Wetter: Kattowitz - Pyrzowice (284m)

6-stündlich | Neueste Meldungen
Ortszeit Temperatur Wetter
Mi, 02.12. 13:00 -3.6° C bedeckt
Mi, 02.12. 7:00 -6.2° C bedeckt
Mi, 02.12. 1:00 -6.4° C wolkenlos
Di, 01.12. 19:00 -3.8° C wolkenlos
Di, 01.12. 13:00 2.2° C wolkenlos
Di, 01.12. 7:00 -3.3° C wolkenlos
Di, 01.12. 1:00 -1.4° C wolkig
Mo, 30.11. 19:00 -0.6° C bewölkt
Ortszeit Temperatur Wetter
Mi, 02.12. 13:30 -4° C bedeckt
Mi, 02.12. 13:00 -3.6° C bedeckt
Mi, 02.12. 12:30 -4° C bedeckt
Mi, 02.12. 12:00 -3.9° C bedeckt
Mi, 02.12. 11:30 -4° C bedeckt
Mi, 02.12. 11:00 -4.1° C bedeckt
Mi, 02.12. 10:30 -4° C bedeckt
Mi, 02.12. 10:00 -4.7° C bedeckt, nach Nebel
Ortszeit Relative Feuchte Sichtweite
Mi, 02.12. 13:00 98% 3.5 km
Mi, 02.12. 7:00 97% 1.5 km
Mi, 02.12. 1:00 97% 6 km
Di, 01.12. 19:00 93% 10 km
Di, 01.12. 13:00 67% 20 km
Di, 01.12. 7:00 87% 20 km
Di, 01.12. 1:00 98% 10 km
Mo, 30.11. 19:00 95% 10 km
Ortszeit Relative Feuchte Sichtweite
Mi, 02.12. 13:30 100% 7 km
Mi, 02.12. 13:00 98% 3.5 km
Mi, 02.12. 12:30 100% 6 km
Mi, 02.12. 12:00 98% 3.0 km
Mi, 02.12. 11:30 93% 5.0 km
Mi, 02.12. 11:00 98% 2.5 km
Mi, 02.12. 10:30 93% 4.8 km
Mi, 02.12. 10:00 98% 1.8 km
Ortszeit Niederschlagsmenge Niederschlagsart
Mi, 02.12. 13:00 0.0 l/m2 in 6 Std. Nebel
Mi, 02.12. 7:00 0.0 l/m2 in 12 Std. -
Mi, 02.12. 1:00 0.0 l/m2 in 6 Std. -
Di, 01.12. 19:00 0.0 l/m2 in 12 Std. -
Di, 01.12. 13:00 0.0 l/m2 in 6 Std. -
Di, 01.12. 7:00 0.0 l/m2 in 12 Std. -
Di, 01.12. 1:00 0.0 l/m2 in 6 Std. -
Mo, 30.11. 19:00 0.0 l/m2 in 12 Std. -
Ortszeit Niederschlagsmenge Niederschlagsart
Mi, 02.12. 13:30 keine Meldung -
Mi, 02.12. 13:00 keine Meldung -
Mi, 02.12. 12:30 keine Meldung -
Mi, 02.12. 12:00 keine Meldung -
Mi, 02.12. 11:30 keine Meldung -
Mi, 02.12. 11:00 keine Meldung -
Mi, 02.12. 10:30 keine Meldung -
Mi, 02.12. 10:00 keine Meldung -
Ortszeit Stärke Spitze Richtung
km/h Bft. km/h Grad Sektor
Mi, 02.12. 13:00 7 2 - 80° O
Mi, 02.12. 7:00 11 2 - 60° NO
Mi, 02.12. 1:00 0 0 - - -
Di, 01.12. 19:00 0 0 - - -
Di, 01.12. 13:00 11 2 - 140° SO
Di, 01.12. 7:00 4 1 - 140° SO
Di, 01.12. 1:00 4 1 - 170° S
Mo, 30.11. 19:00 4 1 - 200° S
Ortszeit Stärke Spitze Richtung
km/h Bft. km/h Grad Sektor
Mi, 02.12. 13:30 15 3 - 80° O
Mi, 02.12. 13:00 7 2 - 80° O
Mi, 02.12. 12:30 11 2 - 120° SO
Mi, 02.12. 12:00 7 2 - 90° O
Mi, 02.12. 11:30 15 3 - 120° SO
Mi, 02.12. 11:00 11 2 - 110° O
Mi, 02.12. 10:30 17 3 - 90° O
Mi, 02.12. 10:00 11 2 - 60° NO
Ortszeit Untergrenze Bedeckung Gattung
total tief tief mittel hoch
Mi, 02.12. 13:00 180 m 8/8 8/8 St - -
Mi, 02.12. 7:00 60 m 8/8 8/8 St - -
Mi, 02.12. 1:00 - 0/8 0/8 - - -
Di, 01.12. 19:00 - 0/8 0/8 - - -
Di, 01.12. 13:00 - 0/8 0/8 - - -
Di, 01.12. 7:00 - 0/8 0/8 - - -
Di, 01.12. 1:00 - 6/8 6/8 Sc - -
Mo, 30.11. 19:00 - 7/8 7/8 Sc - -
Ortszeit Bedeckungsgrad in Achtel und Wolkenuntergrenze
Mi, 02.12. 13:30 8(150m)
Mi, 02.12. 13:00 8(180m)
Mi, 02.12. 12:30 8(150m)
Mi, 02.12. 12:00 8(150m)
Mi, 02.12. 11:30 8(120m)
Mi, 02.12. 11:00 8(120m)
Mi, 02.12. 10:30 8(120m)
Mi, 02.12. 10:00 8(90m)
Ortszeit Luftdruck NN (hPa) Tendenz (hPa in 3 Std.)
Mi, 02.12. 13:00 1024 - 1,6
Mi, 02.12. 7:00 1026 + 0,3
Mi, 02.12. 1:00 1026 + 0,2
Di, 01.12. 19:00 1024 + 1,1
Di, 01.12. 13:00 1022 - 0,6
Di, 01.12. 7:00 1023 - 0,8
Di, 01.12. 1:00 1024 - 1,4
Mo, 30.11. 19:00 1026 - 0,5
Ortszeit Luftdruck NN (hPa) Tendenz (hPa in 3 Std.)
Mi, 02.12. 13:30 1021 keine Meldung
Mi, 02.12. 13:00 1024 - 1,6
Mi, 02.12. 12:30 1021 keine Meldung
Mi, 02.12. 12:00 1025 - 1,0
Mi, 02.12. 11:30 1022 keine Meldung
Mi, 02.12. 11:00 1025 - 0,8
Mi, 02.12. 10:30 1022 keine Meldung
Mi, 02.12. 10:00 1026 - 0,2
Ortszeit Schneehöhe (cm)
Mi, 02.12. 13:00 -
Mi, 02.12. 7:00 -
Mi, 02.12. 1:00 -
Di, 01.12. 19:00 -
Di, 01.12. 13:00 -
Di, 01.12. 7:00 -
Di, 01.12. 1:00 -
Mo, 30.11. 19:00 -
Ortszeit Schneehöhe (cm)
Mi, 02.12. 13:30 -
Mi, 02.12. 13:00 -
Mi, 02.12. 12:30 -
Mi, 02.12. 12:00 -
Mi, 02.12. 11:30 -
Mi, 02.12. 11:00 -
Mi, 02.12. 10:30 -
Mi, 02.12. 10:00 -
Link zu dieser Seite / Seite empfehlen

Das Wetter in ...